BCS9069 WSSS-WADL

Flight info

Callsign BCS9069
Flight time 2h 12m
Altitude 35000
Route SURGA M635 RAMPY DCT AGUNG
Aircraft A306/H-SDE3FGHIRWY/LB1

Departure

Time 2026-04-25 03:39
Airport Singapore Changi Airport (WSSS)

Arrival

Time 2026-04-25 05:51
Airport Lombok International Airport (WADL)
Time Latitude Longitude Altitude Speed Heading
2026-04-25 03:13 1.37186 103.99735 30 ft 0 kts 293°
2026-04-25 03:25 1.37181 103.99748 30 ft 4 kts 289°
2026-04-25 03:26 1.37173 103.99774 28 ft 4 kts 277°
2026-04-25 03:26 1.37173 103.99800 28 ft 4 kts 250°
2026-04-25 03:26 1.37185 103.99816 28 ft 1 kts 203°
2026-04-25 03:30 1.37165 103.99808 28 ft 13 kts 202°
2026-04-25 03:30 1.37018 103.99746 30 ft 27 kts 203°
2026-04-25 03:30 1.36847 103.99673 30 ft 26 kts 203°
2026-04-25 03:31 1.36686 103.99612 30 ft 18 kts 172°
2026-04-25 03:31 1.36649 103.99688 30 ft 11 kts 111°
2026-04-25 03:31 1.36621 103.99760 30 ft 13 kts 111°
2026-04-25 03:31 1.36580 103.99844 30 ft 13 kts 136°
2026-04-25 03:32 1.36509 103.99831 30 ft 11 kts 205°
2026-04-25 03:32 1.36404 103.99784 30 ft 22 kts 203°
2026-04-25 03:32 1.36267 103.99727 30 ft 22 kts 202°
2026-04-25 03:32 1.36121 103.99666 30 ft 24 kts 202°
2026-04-25 03:33 1.35959 103.99597 30 ft 26 kts 203°
2026-04-25 03:33 1.35786 103.99523 30 ft 28 kts 204°
2026-04-25 03:33 1.35603 103.99443 30 ft 29 kts 204°
2026-04-25 03:33 1.35410 103.99360 30 ft 31 kts 201°
2026-04-25 03:34 1.35207 103.99280 30 ft 32 kts 202°
2026-04-25 03:34 1.34998 103.99192 29 ft 33 kts 202°
2026-04-25 03:34 1.34782 103.99101 30 ft 34 kts 203°
2026-04-25 03:34 1.34560 103.99004 30 ft 35 kts 204°
2026-04-25 03:35 1.34335 103.98912 30 ft 36 kts 202°
2026-04-25 03:35 1.34099 103.98813 30 ft 37 kts 204°
2026-04-25 03:35 1.33866 103.98716 30 ft 37 kts 206°
2026-04-25 03:35 1.33630 103.98616 30 ft 37 kts 204°
2026-04-25 03:36 1.33394 103.98517 30 ft 36 kts 202°
2026-04-25 03:36 1.33161 103.98418 30 ft 37 kts 203°
2026-04-25 03:36 1.32965 103.98336 30 ft 11 kts 201°
2026-04-25 03:36 1.32884 103.98307 30 ft 13 kts 186°
2026-04-25 03:37 1.32848 103.98339 30 ft 0 kts 109°
2026-04-25 03:37 1.32847 103.98340 30 ft 1 kts 109°
2026-04-25 03:37 1.32842 103.98355 30 ft 4 kts 105°
2026-04-25 03:37 1.32840 103.98402 30 ft 10 kts 85°
2026-04-25 03:38 1.32887 103.98486 30 ft 18 kts 42°
2026-04-25 03:38 1.33027 103.98555 30 ft 27 kts 22°
2026-04-25 03:38 1.33347 103.98691 30 ft 83 kts 23°
2026-04-25 03:38 1.34094 103.99004 30 ft 148 kts 23°
2026-04-25 03:39 1.34811 103.99309 47 ft 185 kts 22°
2026-04-25 03:39 1.36502 104.00000 958 ft 203 kts 23°
2026-04-25 03:39 1.37819 104.00541 2005 ft 205 kts 22°
2026-04-25 03:39 1.39217 104.01053 2512 ft 226 kts 21°
2026-04-25 03:40 1.40746 104.01651 2519 ft 247 kts 24°
2026-04-25 03:40 1.41806 104.02131 2611 ft 255 kts 25°
2026-04-25 03:40 1.43390 104.02855 3140 ft 264 kts 25°
2026-04-25 03:40 1.45066 104.03603 4222 ft 262 kts 26°
2026-04-25 03:41 1.46605 104.04569 5246 ft 264 kts 43°
2026-04-25 03:41 1.47638 104.06074 6256 ft 266 kts 69°
2026-04-25 03:41 1.47880 104.07910 7227 ft 270 kts 95°
2026-04-25 03:41 1.47342 104.09695 8270 ft 276 kts 111°
2026-04-25 03:42 1.46528 104.11449 9336 ft 281 kts 114°
2026-04-25 03:42 1.45615 104.13215 10284 ft 287 kts 120°
2026-04-25 03:42 1.44442 104.14885 10802 ft 309 kts 125°
2026-04-25 03:42 1.43062 104.16639 11229 ft 331 kts 128°
2026-04-25 03:43 1.41530 104.18455 11563 ft 350 kts 129°
2026-04-25 03:43 1.39887 104.20335 11859 ft 367 kts 130°
2026-04-25 03:43 1.38159 104.22288 12193 ft 380 kts 130°
2026-04-25 03:43 1.36385 104.24294 12686 ft 387 kts 130°
2026-04-25 03:44 1.34594 104.26327 13217 ft 391 kts 129°
2026-04-25 03:44 1.32787 104.28392 13775 ft 395 kts 129°
2026-04-25 03:44 1.30977 104.30469 14262 ft 398 kts 129°
2026-04-25 03:44 1.29175 104.32543 14771 ft 401 kts 129°
2026-04-25 03:45 1.27341 104.34656 15264 ft 404 kts 129°
2026-04-25 03:45 1.25492 104.36788 15770 ft 407 kts 129°
2026-04-25 03:45 1.23627 104.38939 16259 ft 410 kts 129°
2026-04-25 03:45 1.21751 104.41101 16734 ft 412 kts 129°
2026-04-25 03:46 1.19864 104.43275 17206 ft 415 kts 129°
2026-04-25 03:46 1.17988 104.45437 17645 ft 418 kts 129°
2026-04-25 03:46 1.16072 104.47644 18070 ft 421 kts 129°
2026-04-25 03:46 1.14148 104.49860 18444 ft 424 kts 129°
2026-04-25 03:47 1.12215 104.52087 18779 ft 426 kts 129°
2026-04-25 03:47 1.10262 104.54335 19120 ft 428 kts 129°
2026-04-25 03:47 1.08303 104.56590 19447 ft 431 kts 129°
2026-04-25 03:47 1.06335 104.58857 19770 ft 433 kts 129°
2026-04-25 03:48 1.04358 104.61135 20081 ft 435 kts 129°
2026-04-25 03:48 1.02370 104.63424 20379 ft 437 kts 129°
2026-04-25 03:48 1.00376 104.65720 20683 ft 439 kts 129°
2026-04-25 03:48 0.98375 104.68024 20972 ft 440 kts 129°
2026-04-25 03:49 0.96362 104.70343 21263 ft 442 kts 129°
2026-04-25 03:49 0.94338 104.72673 21542 ft 444 kts 129°
2026-04-25 03:49 0.92312 104.75006 21821 ft 446 kts 129°
2026-04-25 03:49 0.90274 104.77352 22091 ft 448 kts 129°
2026-04-25 03:50 0.88232 104.79705 22349 ft 450 kts 130°
2026-04-25 03:50 0.86174 104.82074 22603 ft 451 kts 130°
2026-04-25 03:50 0.84109 104.84452 22852 ft 453 kts 130°
2026-04-25 03:50 0.82062 104.86809 23095 ft 455 kts 130°
2026-04-25 03:51 0.79985 104.89202 23340 ft 457 kts 130°
2026-04-25 03:51 0.77895 104.91608 23552 ft 458 kts 130°
2026-04-25 03:51 0.75801 104.94020 23742 ft 460 kts 130°
2026-04-25 03:51 0.73702 104.96436 23920 ft 461 kts 130°
2026-04-25 03:52 0.71591 104.98867 24119 ft 463 kts 130°
2026-04-25 03:52 0.69480 105.01298 24298 ft 464 kts 130°
2026-04-25 03:52 0.67360 105.03738 24473 ft 465 kts 130°
2026-04-25 03:52 0.65238 105.06181 24668 ft 466 kts 130°
2026-04-25 03:53 0.63106 105.08636 24836 ft 468 kts 130°
2026-04-25 03:53 0.60970 105.11096 25023 ft 469 kts 130°
2026-04-25 03:53 0.58850 105.13536 25168 ft 471 kts 130°
2026-04-25 03:53 0.56705 105.16006 25362 ft 472 kts 130°
2026-04-25 03:54 0.54551 105.18486 25521 ft 473 kts 130°
2026-04-25 03:54 0.52392 105.20971 25683 ft 474 kts 130°
2026-04-25 03:54 0.50223 105.23468 25849 ft 475 kts 130°
2026-04-25 03:54 0.48055 105.25964 26022 ft 476 kts 130°
2026-04-25 03:55 0.45885 105.28463 26141 ft 477 kts 130°
2026-04-25 03:55 0.43704 105.30973 26291 ft 479 kts 130°
2026-04-25 03:55 0.41519 105.33489 26426 ft 480 kts 130°
2026-04-25 03:55 0.39324 105.36016 26551 ft 481 kts 130°
2026-04-25 03:56 0.37130 105.38542 26705 ft 482 kts 130°
2026-04-25 03:56 0.34930 105.41074 26851 ft 483 kts 130°
2026-04-25 03:56 0.32751 105.43583 26979 ft 484 kts 130°
2026-04-25 03:56 0.30549 105.46117 27124 ft 484 kts 130°
2026-04-25 03:57 0.28326 105.48676 27307 ft 484 kts 130°
2026-04-25 03:57 0.26114 105.51223 27471 ft 484 kts 130°
2026-04-25 03:57 0.23939 105.53727 27683 ft 483 kts 130°
2026-04-25 03:57 0.21712 105.56291 27862 ft 483 kts 130°
2026-04-25 03:58 0.19534 105.58798 28048 ft 483 kts 130°
2026-04-25 03:58 0.17311 105.61357 28337 ft 481 kts 130°
2026-04-25 03:58 0.15143 105.63853 28525 ft 481 kts 130°
2026-04-25 03:58 0.12948 105.66379 28791 ft 480 kts 130°
2026-04-25 03:59 0.10763 105.68895 29051 ft 479 kts 130°
2026-04-25 03:59 0.08578 105.71410 29241 ft 479 kts 130°
2026-04-25 03:59 0.06382 105.73938 29504 ft 479 kts 130°
2026-04-25 03:59 0.04199 105.76451 29758 ft 478 kts 130°
2026-04-25 04:00 0.02041 105.78935 30009 ft 478 kts 130°
2026-04-25 04:00 -0.00135 105.81441 30244 ft 477 kts 130°
2026-04-25 04:00 -0.02306 105.83940 30498 ft 475 kts 130°
2026-04-25 04:00 -0.04473 105.86435 30745 ft 475 kts 130°
2026-04-25 04:01 -0.06637 105.88925 30963 ft 474 kts 130°
2026-04-25 04:01 -0.08800 105.91416 31194 ft 474 kts 130°
2026-04-25 04:01 -0.10962 105.93904 31418 ft 473 kts 130°
2026-04-25 04:01 -0.13132 105.96402 31662 ft 473 kts 130°
2026-04-25 04:02 -0.15282 105.98877 31901 ft 472 kts 130°
2026-04-25 04:02 -0.17409 106.01326 32103 ft 473 kts 130°
2026-04-25 04:02 -0.19567 106.03810 32310 ft 473 kts 130°
2026-04-25 04:02 -0.21727 106.06296 32549 ft 473 kts 130°
2026-04-25 04:03 -0.23880 106.08775 32824 ft 471 kts 130°
2026-04-25 04:03 -0.26028 106.11248 33082 ft 471 kts 130°
2026-04-25 04:03 -0.28171 106.13715 33322 ft 470 kts 130°
2026-04-25 04:03 -0.30316 106.16184 33567 ft 470 kts 130°
2026-04-25 04:04 -0.32464 106.18656 33821 ft 469 kts 130°
2026-04-25 04:04 -0.34604 106.21120 34046 ft 469 kts 130°
2026-04-25 04:04 -0.36743 106.23583 34268 ft 468 kts 130°
2026-04-25 04:04 -0.38856 106.26015 34502 ft 468 kts 130°
2026-04-25 04:05 -0.40993 106.28475 34714 ft 468 kts 130°
2026-04-25 04:05 -0.43125 106.30930 34888 ft 467 kts 130°
2026-04-25 04:05 -0.47351 106.35794 34919 ft 459 kts 130°
2026-04-25 04:06 -0.51523 106.40598 34922 ft 457 kts 130°
2026-04-25 04:06 -0.55698 106.45405 34928 ft 458 kts 130°
2026-04-25 04:07 -0.59848 106.50184 34925 ft 458 kts 130°
2026-04-25 04:07 -0.64041 106.54975 34923 ft 458 kts 130°
2026-04-25 04:08 -0.68269 106.59737 34922 ft 458 kts 130°
2026-04-25 04:08 -0.72499 106.64491 34921 ft 458 kts 130°
2026-04-25 04:09 -0.76730 106.69255 34924 ft 458 kts 130°
2026-04-25 04:09 -0.80954 106.74015 34924 ft 457 kts 131°
2026-04-25 04:10 -0.85176 106.78776 34921 ft 457 kts 130°
2026-04-25 04:10 -0.89375 106.83510 34919 ft 458 kts 130°
2026-04-25 04:11 -0.95727 106.90670 34921 ft 458 kts 130°
2026-04-25 04:12 -0.99957 106.95439 34921 ft 458 kts 130°
2026-04-25 04:12 -1.04154 107.00172 34919 ft 457 kts 130°
2026-04-25 04:13 -1.08377 107.04933 34926 ft 458 kts 130°
2026-04-25 04:13 -1.12606 107.09703 34923 ft 459 kts 131°
2026-04-25 04:14 -1.16844 107.14482 34924 ft 459 kts 131°
2026-04-25 04:14 -1.21083 107.19261 34921 ft 459 kts 131°
2026-04-25 04:15 -1.25309 107.24027 34918 ft 458 kts 131°
2026-04-25 04:15 -1.29516 107.28772 34923 ft 458 kts 131°
2026-04-25 04:16 -1.33757 107.33557 34925 ft 460 kts 131°
2026-04-25 04:16 -1.37991 107.38352 34923 ft 459 kts 130°
2026-04-25 04:17 -1.42162 107.43173 34922 ft 458 kts 130°
2026-04-25 04:17 -1.46282 107.47964 34916 ft 457 kts 130°
2026-04-25 04:18 -1.50444 107.52797 34919 ft 458 kts 130°
2026-04-25 04:18 -1.54613 107.57629 34921 ft 460 kts 130°
2026-04-25 04:19 -1.58797 107.62477 34917 ft 459 kts 130°
2026-04-25 04:19 -1.62966 107.67307 34919 ft 458 kts 130°
2026-04-25 04:20 -1.67127 107.72131 34915 ft 458 kts 130°
2026-04-25 04:20 -1.71269 107.76931 34918 ft 459 kts 130°
2026-04-25 04:21 -1.75435 107.81759 34915 ft 459 kts 130°
2026-04-25 04:21 -1.79606 107.86595 34914 ft 459 kts 130°
2026-04-25 04:22 -1.83768 107.91419 34913 ft 457 kts 130°
2026-04-25 04:22 -1.87931 107.96246 34912 ft 458 kts 130°
2026-04-25 04:23 -1.92073 108.01050 34912 ft 459 kts 130°
2026-04-25 04:23 -1.96249 108.05891 34911 ft 459 kts 130°
2026-04-25 04:24 -2.00425 108.10733 34909 ft 458 kts 130°
2026-04-25 04:24 -2.04584 108.15558 34911 ft 458 kts 130°
2026-04-25 04:25 -2.08747 108.20385 34911 ft 458 kts 130°
2026-04-25 04:25 -2.12892 108.25186 34911 ft 459 kts 130°
2026-04-25 04:26 -2.17068 108.30025 34912 ft 459 kts 130°
2026-04-25 04:26 -2.21234 108.34855 34910 ft 457 kts 130°
2026-04-25 04:27 -2.25381 108.39665 34912 ft 456 kts 130°
2026-04-25 04:27 -2.28835 108.43668 34921 ft 457 kts 130°
2026-04-25 04:28 -2.33656 108.49258 34909 ft 456 kts 130°
2026-04-25 04:28 -2.37132 108.53288 34912 ft 455 kts 130°
2026-04-25 04:29 -2.41266 108.58084 34911 ft 455 kts 130°
2026-04-25 04:29 -2.45375 108.62850 34905 ft 454 kts 130°
2026-04-25 04:30 -2.49510 108.67646 34910 ft 455 kts 130°
2026-04-25 04:30 -2.53663 108.72447 34908 ft 457 kts 130°
2026-04-25 04:31 -2.57799 108.77224 34908 ft 456 kts 130°
2026-04-25 04:31 -2.61953 108.82023 34911 ft 455 kts 130°
2026-04-25 04:32 -2.66092 108.86809 34906 ft 454 kts 130°
2026-04-25 04:32 -2.70225 108.91589 34907 ft 454 kts 130°
2026-04-25 04:33 -2.74340 108.96349 34906 ft 455 kts 130°
2026-04-25 04:33 -2.78494 109.01152 34907 ft 455 kts 130°
2026-04-25 04:34 -2.82636 109.05942 34909 ft 454 kts 130°
2026-04-25 04:34 -2.86741 109.10691 34904 ft 453 kts 130°
2026-04-25 04:35 -2.90871 109.15474 34905 ft 454 kts 130°
2026-04-25 04:35 -2.94989 109.20256 34902 ft 454 kts 130°
2026-04-25 04:36 -2.99119 109.25056 34907 ft 454 kts 130°
2026-04-25 04:36 -3.03219 109.29821 34905 ft 454 kts 130°
2026-04-25 04:37 -3.07337 109.34606 34903 ft 452 kts 130°
2026-04-25 04:37 -3.11445 109.39380 34901 ft 453 kts 130°
2026-04-25 04:38 -3.15565 109.44170 34905 ft 454 kts 130°
2026-04-25 04:38 -3.19692 109.48968 34902 ft 454 kts 130°
2026-04-25 04:39 -3.23809 109.53754 34898 ft 453 kts 130°
2026-04-25 04:39 -3.27924 109.58539 34899 ft 453 kts 130°
2026-04-25 04:40 -3.32005 109.63286 34901 ft 453 kts 130°
2026-04-25 04:40 -3.36118 109.68069 34901 ft 453 kts 130°
2026-04-25 04:41 -3.40237 109.72861 34901 ft 455 kts 130°
2026-04-25 04:41 -3.44364 109.77661 34899 ft 453 kts 130°
2026-04-25 04:42 -3.48479 109.82449 34898 ft 453 kts 129°
2026-04-25 04:42 -3.52558 109.87196 34899 ft 452 kts 130°
2026-04-25 04:43 -3.56669 109.91982 34899 ft 453 kts 129°
2026-04-25 04:43 -3.60791 109.96781 34895 ft 455 kts 129°
2026-04-25 04:44 -3.64925 110.01595 34896 ft 456 kts 129°
2026-04-25 04:44 -3.69059 110.06409 34892 ft 455 kts 129°
2026-04-25 04:45 -3.73159 110.11184 34891 ft 454 kts 129°
2026-04-25 04:45 -3.77282 110.15988 34893 ft 455 kts 129°
2026-04-25 04:46 -3.81412 110.20800 34888 ft 456 kts 130°
2026-04-25 04:46 -3.85558 110.25631 34888 ft 457 kts 130°
2026-04-25 04:47 -3.89669 110.30421 34891 ft 456 kts 130°
2026-04-25 04:47 -3.93808 110.35245 34890 ft 456 kts 129°
2026-04-25 04:48 -3.97888 110.40100 34887 ft 455 kts 127°
2026-04-25 04:48 -4.01776 110.45110 34889 ft 455 kts 126°
2026-04-25 04:49 -4.05621 110.50160 34886 ft 456 kts 126°
2026-04-25 04:49 -4.09487 110.55205 34883 ft 455 kts 126°
2026-04-25 04:50 -4.13331 110.60193 34886 ft 455 kts 126°
2026-04-25 04:50 -4.17201 110.65206 34884 ft 455 kts 126°
2026-04-25 04:51 -4.21073 110.70222 34884 ft 455 kts 126°
2026-04-25 04:51 -4.24951 110.75247 34884 ft 455 kts 126°
2026-04-25 04:52 -4.28826 110.80270 34885 ft 455 kts 126°
2026-04-25 04:52 -4.32706 110.85303 34887 ft 457 kts 126°
2026-04-25 04:53 -4.36598 110.90351 34882 ft 458 kts 126°
2026-04-25 04:53 -4.40495 110.95405 34885 ft 458 kts 126°
2026-04-25 04:54 -4.44362 111.00422 34885 ft 458 kts 126°
2026-04-25 04:54 -4.48274 111.05499 34883 ft 457 kts 126°
2026-04-25 04:55 -4.52137 111.10513 34886 ft 457 kts 126°
2026-04-25 04:55 -4.56039 111.15578 34887 ft 458 kts 126°
2026-04-25 04:56 -4.59934 111.20635 34883 ft 457 kts 126°
2026-04-25 04:56 -4.63833 111.25688 34886 ft 458 kts 126°
2026-04-25 04:57 -4.67727 111.30713 34884 ft 461 kts 127°
2026-04-25 04:57 -4.71664 111.35788 34884 ft 461 kts 127°
2026-04-25 04:58 -4.75598 111.40863 34885 ft 461 kts 127°
2026-04-25 04:58 -4.79535 111.45945 34885 ft 461 kts 127°
2026-04-25 04:59 -4.83476 111.51033 34883 ft 461 kts 126°
2026-04-25 04:59 -4.87415 111.56121 34885 ft 461 kts 126°
2026-04-25 05:00 -4.91346 111.61198 34885 ft 461 kts 126°
2026-04-25 05:00 -4.95260 111.66254 34886 ft 461 kts 127°
2026-04-25 05:01 -4.99197 111.71344 34882 ft 461 kts 127°
2026-04-25 05:01 -5.03130 111.76429 34879 ft 460 kts 127°
2026-04-25 05:02 -5.07061 111.81511 34879 ft 461 kts 126°
2026-04-25 05:02 -5.10994 111.86595 34882 ft 461 kts 126°
2026-04-25 05:03 -5.14900 111.91647 34880 ft 461 kts 126°
2026-04-25 05:03 -5.18836 111.96739 34881 ft 461 kts 126°
2026-04-25 05:04 -5.22760 112.01818 34882 ft 461 kts 126°
2026-04-25 05:04 -5.26693 112.06910 34881 ft 461 kts 126°
2026-04-25 05:05 -5.30625 112.12000 34881 ft 461 kts 126°
2026-04-25 05:05 -5.34561 112.17096 34881 ft 463 kts 126°
2026-04-25 05:06 -5.38486 112.22180 34878 ft 464 kts 126°
2026-04-25 05:06 -5.42439 112.27302 34878 ft 464 kts 126°
2026-04-25 05:07 -5.46393 112.32425 34878 ft 464 kts 126°
2026-04-25 05:07 -5.50350 112.37553 34877 ft 464 kts 126°
2026-04-25 05:08 -5.54297 112.42671 34879 ft 464 kts 126°
2026-04-25 05:08 -5.58254 112.47803 34880 ft 464 kts 126°
2026-04-25 05:09 -5.62176 112.52890 34880 ft 462 kts 126°
2026-04-25 05:09 -5.66121 112.58009 34877 ft 462 kts 126°
2026-04-25 05:10 -5.70060 112.63121 34877 ft 463 kts 126°
2026-04-25 05:10 -5.74004 112.68241 34876 ft 463 kts 126°
2026-04-25 05:11 -5.77946 112.73359 34877 ft 463 kts 126°
2026-04-25 05:11 -5.81858 112.78440 34876 ft 463 kts 125°
2026-04-25 05:12 -5.87753 112.86098 34876 ft 461 kts 126°
2026-04-25 05:12 -5.91672 112.91192 34875 ft 461 kts 126°
2026-04-25 05:13 -5.95591 112.96287 34875 ft 461 kts 125°
2026-04-25 05:13 -5.98850 113.00525 34879 ft 461 kts 126°
2026-04-25 05:14 -6.03425 113.06474 34875 ft 462 kts 126°
2026-04-25 05:15 -6.08654 113.13278 34880 ft 461 kts 126°
2026-04-25 05:15 -6.13227 113.19229 34879 ft 460 kts 125°
2026-04-25 05:16 -6.16480 113.23463 34873 ft 459 kts 125°
2026-04-25 05:16 -6.20391 113.28556 34876 ft 459 kts 125°
2026-04-25 05:17 -6.24270 113.33609 34882 ft 459 kts 125°
2026-04-25 05:17 -6.28135 113.38735 34875 ft 459 kts 125°
2026-04-25 05:18 -6.31964 113.43849 34874 ft 460 kts 125°
2026-04-25 05:18 -6.35806 113.48978 34872 ft 458 kts 125°
2026-04-25 05:19 -6.39639 113.54096 34875 ft 458 kts 125°
2026-04-25 05:19 -6.43454 113.59191 34871 ft 458 kts 125°
2026-04-25 05:20 -6.47291 113.64316 34872 ft 458 kts 125°
2026-04-25 05:20 -6.51129 113.69445 34872 ft 458 kts 125°
2026-04-25 05:21 -6.54963 113.74570 34873 ft 458 kts 125°
2026-04-25 05:21 -6.58794 113.79692 34872 ft 457 kts 125°
2026-04-25 05:22 -6.62617 113.84803 34873 ft 457 kts 125°
2026-04-25 05:22 -6.66424 113.89898 34875 ft 457 kts 125°
2026-04-25 05:23 -6.70249 113.95015 34875 ft 457 kts 125°
2026-04-25 05:23 -6.74045 114.00096 34874 ft 457 kts 125°
2026-04-25 05:24 -6.77806 114.05131 34875 ft 457 kts 125°
2026-04-25 05:24 -6.81630 114.10253 34876 ft 456 kts 125°
2026-04-25 05:25 -6.85447 114.15366 34876 ft 456 kts 125°
2026-04-25 05:25 -6.89251 114.20465 34875 ft 456 kts 125°
2026-04-25 05:26 -6.93060 114.25571 34874 ft 456 kts 125°
2026-04-25 05:26 -6.96869 114.30678 34866 ft 456 kts 125°
2026-04-25 05:27 -7.00655 114.35756 34869 ft 456 kts 125°
2026-04-25 05:27 -7.04466 114.40869 34869 ft 456 kts 125°
2026-04-25 05:28 -7.08269 114.45972 34870 ft 455 kts 125°
2026-04-25 05:28 -7.12076 114.51083 34869 ft 458 kts 125°
2026-04-25 05:29 -7.15909 114.56232 34869 ft 463 kts 125°
2026-04-25 05:29 -7.19775 114.61425 34868 ft 464 kts 125°
2026-04-25 05:30 -7.23642 114.66621 34864 ft 463 kts 125°
2026-04-25 05:30 -7.27506 114.71816 34866 ft 463 kts 125°
2026-04-25 05:31 -7.31377 114.77022 34861 ft 464 kts 125°
2026-04-25 05:31 -7.35225 114.82198 34861 ft 464 kts 125°
2026-04-25 05:32 -7.39097 114.87407 34862 ft 464 kts 125°
2026-04-25 05:32 -7.42937 114.92577 34845 ft 457 kts 125°
2026-04-25 05:32 -7.44808 114.95094 34390 ft 452 kts 125°
2026-04-25 05:33 -7.46765 114.97628 33566 ft 455 kts 129°
2026-04-25 05:33 -7.48933 114.99939 33086 ft 462 kts 133°
2026-04-25 05:33 -7.51253 115.02246 32850 ft 470 kts 134°
2026-04-25 05:33 -7.53610 115.04552 32601 ft 471 kts 134°
2026-04-25 05:34 -7.55965 115.06845 32363 ft 471 kts 135°
2026-04-25 05:34 -7.58327 115.09140 32110 ft 472 kts 135°
2026-04-25 05:34 -7.60702 115.11446 31865 ft 474 kts 135°
2026-04-25 05:34 -7.63076 115.13750 31648 ft 475 kts 135°
2026-04-25 05:35 -7.65458 115.16061 31409 ft 475 kts 135°
2026-04-25 05:35 -7.67840 115.18373 31167 ft 474 kts 135°
2026-04-25 05:35 -7.70175 115.20640 30933 ft 472 kts 135°
2026-04-25 05:35 -7.72579 115.22973 30698 ft 471 kts 135°
2026-04-25 05:36 -7.74939 115.25264 30465 ft 470 kts 135°
2026-04-25 05:36 -7.83470 115.33549 29604 ft 462 kts 135°
2026-04-25 05:36 -7.92497 115.42319 28190 ft 443 kts 135°
2026-04-25 05:36 -8.01104 115.50690 25757 ft 419 kts 135°
2026-04-25 05:37 -8.09337 115.58700 23492 ft 406 kts 135°
2026-04-25 05:37 -8.17333 115.66485 21124 ft 391 kts 135°
2026-04-25 05:37 -8.25054 115.74007 18837 ft 381 kts 135°
2026-04-25 05:37 -8.32573 115.81335 16431 ft 368 kts 135°
2026-04-25 05:38 -8.39815 115.88397 14159 ft 355 kts 135°
2026-04-25 05:38 -8.46765 115.95179 12002 ft 337 kts 135°
2026-04-25 05:38 -8.50856 115.99173 10686 ft 329 kts 135°
2026-04-25 05:38 -8.52408 116.00687 10527 ft 313 kts 135°
2026-04-25 05:39 -8.53933 116.02175 10450 ft 295 kts 135°
2026-04-25 05:39 -8.55372 116.03580 10348 ft 281 kts 135°
2026-04-25 05:39 -8.56751 116.04927 10223 ft 271 kts 135°
2026-04-25 05:39 -8.58105 116.06251 9820 ft 272 kts 135°
2026-04-25 05:40 -8.59469 116.07591 9345 ft 275 kts 134°
2026-04-25 05:40 -8.60786 116.08985 8960 ft 273 kts 131°
2026-04-25 05:40 -8.61998 116.10388 8773 ft 263 kts 128°
2026-04-25 05:40 -8.62910 116.11928 8609 ft 252 kts 106°
2026-04-25 05:41 -8.62994 116.13632 8393 ft 239 kts 77°
2026-04-25 05:41 -8.62249 116.15072 8044 ft 234 kts 49°
2026-04-25 05:41 -8.60853 116.15979 7309 ft 248 kts 19°
2026-04-25 05:41 -8.59116 116.16212 6641 ft 256 kts
2026-04-25 05:42 -8.57330 116.16212 6046 ft 259 kts
2026-04-25 05:42 -8.55534 116.16012 5635 ft 261 kts 343°
2026-04-25 05:42 -8.54016 116.15043 5355 ft 259 kts 313°
2026-04-25 05:42 -8.53174 116.13487 5195 ft 249 kts 284°
2026-04-25 05:43 -8.52977 116.11803 4921 ft 237 kts 272°
2026-04-25 05:43 -8.52937 116.10141 4392 ft 237 kts 271°
2026-04-25 05:43 -8.53197 116.08530 3843 ft 237 kts 245°
2026-04-25 05:43 -8.54211 116.07270 3382 ft 232 kts 213°
2026-04-25 05:44 -8.55699 116.06724 3059 ft 226 kts 186°
2026-04-25 05:44 -8.57250 116.06593 2984 ft 217 kts 180°
2026-04-25 05:44 -8.58618 116.06930 2955 ft 192 kts 151°
2026-04-25 05:44 -8.59646 116.07650 2985 ft 168 kts 137°
2026-04-25 05:45 -8.60416 116.08451 2954 ft 150 kts 130°
2026-04-25 05:45 -8.61071 116.09255 2980 ft 148 kts 127°
2026-04-25 05:45 -8.61711 116.10058 2974 ft 146 kts 128°
2026-04-25 05:45 -8.62340 116.10832 2979 ft 145 kts 128°
2026-04-25 05:46 -8.62965 116.11606 2997 ft 143 kts 127°
2026-04-25 05:46 -8.63590 116.12392 2984 ft 145 kts 128°
2026-04-25 05:46 -8.64229 116.13187 2983 ft 146 kts 128°
2026-04-25 05:46 -8.64871 116.13982 2989 ft 146 kts 128°
2026-04-25 05:47 -8.65505 116.14781 2989 ft 147 kts 127°
2026-04-25 05:47 -8.66148 116.15588 2945 ft 148 kts 128°
2026-04-25 05:47 -8.66798 116.16395 2761 ft 148 kts 128°
2026-04-25 05:47 -8.67447 116.17204 2567 ft 147 kts 128°
2026-04-25 05:48 -8.68080 116.18001 2355 ft 144 kts 128°
2026-04-25 05:48 -8.68709 116.18787 2176 ft 144 kts 129°
2026-04-25 05:48 -8.69346 116.19570 1991 ft 144 kts 129°
2026-04-25 05:48 -8.69950 116.20319 1815 ft 142 kts 129°
2026-04-25 05:49 -8.70565 116.21099 1636 ft 141 kts 129°
2026-04-25 05:49 -8.71187 116.21875 1439 ft 143 kts 130°
2026-04-25 05:49 -8.71820 116.22652 1274 ft 144 kts 130°
2026-04-25 05:49 -8.72440 116.23449 1064 ft 144 kts 128°
2026-04-25 05:50 -8.73016 116.24244 835 ft 140 kts 130°
2026-04-25 05:50 -8.73677 116.24983 717 ft 141 kts 133°
2026-04-25 05:50 -8.74304 116.25766 629 ft 144 kts 131°
2026-04-25 05:50 -8.74924 116.26535 374 ft 137 kts 132°
2026-04-25 05:51 -8.75500 116.27245 333 ft 115 kts 131°
2026-04-25 05:51 -8.75909 116.27757 335 ft 79 kts 129°
2026-04-25 05:51 -8.76208 116.28129 355 ft 56 kts 128°
2026-04-25 05:51 -8.76432 116.28399 350 ft 40 kts 134°
2026-04-25 05:52 -8.76491 116.28472 356 ft 5 kts 66°
2026-04-25 05:52 -8.76455 116.28477 347 ft 8 kts 328°
2026-04-25 05:52 -8.76425 116.28402 349 ft 15 kts 302°
2026-04-25 05:52 -8.76345 116.28294 350 ft 23 kts 311°
2026-04-25 05:53 -8.76232 116.28163 351 ft 30 kts 312°
2026-04-25 05:53 -8.76086 116.27978 353 ft 38 kts 308°
2026-04-25 05:53 -8.75918 116.27760 335 ft 43 kts 308°
2026-04-25 05:53 -8.75736 116.27522 339 ft 41 kts 313°
2026-04-25 05:54 -8.75722 116.27413 335 ft 13 kts 205°
2026-04-25 05:54 -8.75828 116.27359 335 ft 19 kts 217°
2026-04-25 05:54 -8.76029 116.27478 337 ft 25 kts 127°
2026-04-25 05:55 -8.76138 116.27605 339 ft 24 kts 132°
2026-04-25 05:55 -8.76199 116.27655 335 ft 7 kts 179°
2026-04-25 05:55 -8.76233 116.27637 336 ft 5 kts 217°
2026-04-25 05:55 -8.76257 116.27617 337 ft 3 kts 219°
2026-04-25 05:56 -8.76265 116.27610 335 ft 0 kts 219°
2026-04-25 05:57 -8.76263 116.27612 337 ft 0 kts 219°
2026-04-25 05:58 -8.76260 116.27615 337 ft 0 kts 219°